User: anonymous   Login
Location: Raleigh
(35.7720°N, 78.6390°W)
Time: 07:59:26
(UTC-04:00)
Language:

JAS-2 - Orbit

View from above orbital plane
View from above orbital plane
View from above satellite
View from above satellite

Ground track
Ground track

The orbit data is extracted from the following two-line orbital elements,

1 24278U 96046B   16206.36609981 -.00000003  00000-0  30423-4 0  9995
2 24278  98.5848 126.7172 0351297 106.3073 257.6999 13.53069236984545
Epoch (UTC): 24 July 2016 08:47:11
Eccentricity: 0.0351297
inclination: 98.5848°
perigee height: 799 km
apogee height: 1322 km
right ascension of ascending node: 126.7172°
argument of perigee: 106.3073°
revolutions per day: 13.53069236
mean anomaly at epoch: 257.6999°
orbit number at epoch: 98454

The dashed part of the orbit path shows where the satellite is in the earth's shadow,  

DLR